TimePDT,TemperatureF,Dew PointF,Humidity,Sea Level PressureIn,VisibilityMPH,Wind Direction,Wind SpeedMPH,Gust SpeedMPH,PrecipitationIn,Events,Conditions,WindDirDegrees,DateUTC
12:53 AM,35.1,32.0,89,30.25,10.0,South,8.1,-,N/A,,Mostly Cloudy,190,2013-03-11 07:53:00
1:53 AM,36.0,32.0,86,30.25,10.0,SSW,12.7,-,N/A,,Scattered Clouds,210,2013-03-11 08:53:00
2:53 AM,33.1,30.9,92,30.27,10.0,SW,3.5,-,N/A,,Scattered Clouds,220,2013-03-11 09:53:00
3:53 AM,32.0,30.0,92,30.28,10.0,SW,5.8,-,N/A,,Scattered Clouds,220,2013-03-11 10:53:00
4:53 AM,33.1,30.0,89,30.28,10.0,Calm,Calm,-,N/A,,Scattered Clouds,0,2013-03-11 11:53:00
5:22 AM,30.2,30.2,100,30.24,1.8,SSE,4.6,-,N/A,,Partly Cloudy,150,2013-03-11 12:22:00
5:23 AM,30.2,30.2,100,30.24,1.0,SSE,4.6,-,N/A,,Overcast,150,2013-03-11 12:23:00
5:44 AM,30.2,30.2,100,30.24,0.2,South,5.8,-,N/A,Fog,Light Freezing Fog,170,2013-03-11 12:44:00
5:53 AM,32.0,30.0,92,30.29,0.2,South,5.8,-,N/A,Fog,Fog,170,2013-03-11 12:53:00
6:46 AM,30.2,30.2,100,30.25,1.0,SSE,6.9,-,N/A,,Overcast,160,2013-03-11 13:46:00
6:53 AM,30.0,30.0,100,30.31,1.0,South,5.8,-,N/A,,Overcast,180,2013-03-11 13:53:00
6:58 AM,30.2,30.2,100,30.25,0.5,South,3.5,-,N/A,Fog,Light Freezing Fog,180,2013-03-11 13:58:00
7:33 AM,30.2,30.2,100,30.26,0.2,SSW,3.5,-,N/A,Fog,Light Freezing Fog,200,2013-03-11 14:33:00
7:53 AM,30.0,28.9,96,30.32,0.5,South,3.5,-,N/A,Fog,Light Freezing Fog,180,2013-03-11 14:53:00
8:53 AM,30.9,30.0,96,30.34,0.5,SSE,4.6,-,N/A,Fog,Light Freezing Fog,160,2013-03-11 15:53:00
9:28 AM,32.0,30.2,93,30.29,0.2,Calm,Calm,-,N/A,Fog,Fog,0,2013-03-11 16:28:00
9:53 AM,32.0,32.0,100,30.36,0.2,Calm,Calm,-,N/A,,Overcast,0,2013-03-11 16:53:00
10:12 AM,32.0,32.0,100,30.29,0.2,Calm,Calm,-,N/A,,Overcast,0,2013-03-11 17:12:00
10:29 AM,32.0,32.0,100,30.30,8.0,Calm,Calm,-,N/A,,Mostly Cloudy,0,2013-03-11 17:29:00
10:41 AM,33.8,32.0,93,30.30,10.0,Calm,Calm,-,N/A,,Mostly Cloudy,0,2013-03-11 17:41:00
10:53 AM,36.0,33.1,89,30.35,10.0,Calm,Calm,-,N/A,,Mostly Cloudy,0,2013-03-11 17:53:00
11:53 AM,42.1,28.0,58,30.34,10.0,Calm,Calm,-,N/A,,Scattered Clouds,0,2013-03-11 18:53:00
12:53 PM,45.0,21.9,40,30.32,10.0,Variable,5.8,-,N/A,,Scattered Clouds,0,2013-03-11 19:53:00
1:53 PM,46.0,19.0,34,30.30,10.0,North,6.9,-,N/A,,Scattered Clouds,10,2013-03-11 20:53:00
2:53 PM,48.0,21.0,34,30.28,10.0,NNE,4.6,-,N/A,,Scattered Clouds,20,2013-03-11 21:53:00
3:53 PM,48.2,17.6,30,30.24,10.0,NW,6.9,-,N/A,,Scattered Clouds,310,2013-03-11 22:53:00
4:53 PM,46.9,19.0,33,30.27,10.0,SW,4.6,-,N/A,,Scattered Clouds,220,2013-03-11 23:53:00
5:53 PM,46.0,19.9,35,30.27,10.0,WSW,5.8,-,N/A,,Overcast,240,2013-03-12 00:53:00
6:53 PM,44.1,23.0,43,30.27,10.0,SW,4.6,-,N/A,,Overcast,220,2013-03-12 01:53:00
7:53 PM,43.0,23.0,45,30.27,10.0,SW,6.9,-,N/A,,Overcast,220,2013-03-12 02:53:00
8:53 PM,42.1,24.1,49,30.26,10.0,South,4.6,-,N/A,,Overcast,180,2013-03-12 03:53:00
9:53 PM,42.1,23.0,47,30.25,10.0,SSE,4.6,-,N/A,,Overcast,160,2013-03-12 04:53:00
10:53 PM,41.0,24.1,51,30.24,10.0,South,4.6,-,N/A,,Overcast,170,2013-03-12 05:53:00
11:53 PM,39.9,24.1,53,30.24,10.0,SSE,5.8,-,N/A,,Overcast,160,2013-03-12 06:53:00